�������l�o���
Date,Time,MP-1(��Sv/h),MP-2(��Sv/h),MP-3(��Sv/h),MP-4(��Sv/h),MP-5(��Sv/h),MP-6(��Sv/h),MP-7(��Sv/h),MP-8(��Sv/h),����,����(m/s),���J
2023/06/02,00:00,0.560,0.826,0.499,1.014,0.734,0.326,0.578,0.546,��,10.7,��
2023/06/02,00:10,0.558,0.828,0.499,1.012,0.735,0.326,0.577,0.546,��,8.6,��
2023/06/02,00:20,0.559,0.828,0.499,1.011,0.736,0.327,0.577,0.546,��,7.6,��
2023/06/02,00:30,0.558,0.830,0.498,1.014,0.734,0.327,0.578,0.545,��쐼,6.1,�L
2023/06/02,00:40,0.558,0.830,0.500,1.015,0.734,0.328,0.579,0.546,��,5.3,�L
2023/06/02,00:50,0.557,0.833,0.501,1.013,0.737,0.327,0.579,0.547,��,7.5,�L
2023/06/02,01:00,0.558,0.830,0.503,1.014,0.736,0.328,0.579,0.545,��,9.9,�L
2023/06/02,01:10,0.560,0.830,0.501,1.012,0.736,0.328,0.578,0.547,��,8.8,�L
2023/06/02,01:20,0.562,0.831,0.504,1.013,0.737,0.330,0.578,0.547,��,9.9,�L
2023/06/02,01:30,0.561,0.830,0.504,1.012,0.737,0.330,0.579,0.546,��,10.0,�L
2023/06/02,01:40,0.560,0.829,0.502,1.014,0.738,0.330,0.580,0.547,��,9.8,�L
2023/06/02,01:50,0.561,0.831,0.505,1.014,0.734,0.330,0.579,0.545,��,8.4,�L
2023/06/02,02:00,0.562,0.829,0.503,1.013,0.735,0.329,0.578,0.545,��,7.9,�L
2023/06/02,02:10,0.561,0.827,0.503,1.014,0.735,0.330,0.579,0.543,��,8.1,�L
2023/06/02,02:20,0.559,0.826,0.501,1.011,0.733,0.330,0.578,0.543,��,8.9,�L
2023/06/02,02:30,0.559,0.824,0.502,1.013,0.732,0.330,0.577,0.543,��,9.0,�L
2023/06/02,02:40,0.558,0.823,0.499,1.012,0.732,0.330,0.575,0.543,��,9.7,�L
2023/06/02,02:50,0.557,0.819,0.499,1.011,0.726,0.331,0.574,0.541,��,9.8,�L
2023/06/02,03:00,0.554,0.817,0.497,1.007,0.724,0.329,0.574,0.541,��,10.2,�L
2023/06/02,03:10,0.554,0.813,0.496,1.005,0.723,0.328,0.575,0.539,��,8.2,�L
2023/06/02,03:20,0.552,0.811,0.493,1.003,0.719,0.328,0.574,0.540,��,8.2,�L
2023/06/02,03:30,0.550,0.810,0.494,1.000,0.716,0.327,0.573,0.540,��,8.3,�L
2023/06/02,03:40,0.550,0.807,0.491,1.000,0.715,0.329,0.572,0.538,��,7.9,�L
2023/06/02,03:50,0.547,0.806,0.492,0.994,0.715,0.327,0.571,0.537,��,9.2,�L
2023/06/02,04:00,0.547,0.802,0.490,0.993,0.712,0.325,0.571,0.538,��,8.9,�L
2023/06/02,04:10,0.546,0.798,0.490,0.988,0.707,0.324,0.570,0.536,��,10.0,�L
2023/06/02,04:20,0.544,0.798,0.489,0.990,0.710,0.325,0.570,0.537,��,11.6,�L
2023/06/02,04:30,0.542,0.798,0.489,0.986,0.709,0.325,0.569,0.535,��,10.7,�L
2023/06/02,04:40,0.542,0.797,0.488,0.985,0.707,0.324,0.568,0.537,��,9.8,�L
2023/06/02,04:50,0.543,0.796,0.488,0.984,0.709,0.324,0.568,0.537,��,9.5,�L
2023/06/02,05:00,0.542,0.796,0.486,0.983,0.706,0.323,0.567,0.535,��,9.2,�L
2023/06/02,05:10,0.541,0.794,0.487,0.981,0.703,0.324,0.568,0.535,��,10.2,�L
2023/06/02,05:20,0.540,0.794,0.486,0.982,0.705,0.323,0.567,0.534,��,10.0,�L
2023/06/02,05:30,0.541,0.792,0.486,0.980,0.702,0.323,0.566,0.534,��,10.5,�L
2023/06/02,05:40,0.539,0.791,0.487,0.978,0.703,0.323,0.567,0.534,��,9.7,�L
2023/06/02,05:50,0.538,0.792,0.486,0.977,0.703,0.323,0.566,0.534,��,8.3,�L
2023/06/02,06:00,0.540,0.792,0.487,0.976,0.701,0.322,0.567,0.533,��,8.9,�L
2023/06/02,06:10,0.539,0.790,0.485,0.976,0.701,0.322,0.565,0.533,��,9.5,�L
2023/06/02,06:20,0.538,0.791,0.484,0.975,0.700,0.323,0.568,0.533,��,10.2,�L
2023/06/02,06:30,0.537,0.789,0.486,0.974,0.700,0.322,0.565,0.536,��,7.4,�L
2023/06/02,06:40,0.538,0.791,0.485,0.975,0.700,0.322,0.565,0.533,��,8.1,�L
2023/06/02,06:50,0.537,0.786,0.484,0.972,0.697,0.322,0.565,0.534,��,9.3,�L
2023/06/02,07:00,0.539,0.789,0.483,0.974,0.700,0.321,0.566,0.532,��,9.1,�L
2023/06/02,07:10,0.537,0.789,0.484,0.973,0.699,0.321,0.566,0.534,��,9.3,�L
2023/06/02,07:20,0.535,0.789,0.484,0.973,0.700,0.322,0.567,0.533,��,12.5,�L
2023/06/02,07:30,0.536,0.788,0.483,0.972,0.698,0.321,0.566,0.534,��쓌,12.2,�L
2023/06/02,07:40,0.536,0.789,0.482,0.972,0.698,0.320,0.566,0.534,��,11.6,�L
2023/06/02,07:50,0.537,0.789,0.485,0.974,0.699,0.321,0.566,0.532,��,12.8,�L
2023/06/02,08:00,0.537,0.785,0.482,0.972,0.698,0.320,0.565,0.535,��,10.5,�L
2023/06/02,08:10,0.535,0.787,0.483,0.971,0.698,0.319,0.566,0.533,��쓌,10.8,�L
2023/06/02,08:20,0.535,0.786,0.482,0.971,0.695,0.319,0.566,0.534,��,12.2,�L
2023/06/02,08:30,0.534,0.785,0.484,0.972,0.699,0.320,0.567,0.533,��,11.9,�L
2023/06/02,08:40,0.534,0.784,0.482,0.971,0.696,0.320,0.565,0.534,��,10.5,�L
2023/06/02,08:50,0.532,0.784,0.482,0.970,0.697,0.320,0.566,0.532,��쓌,12.4,�L
2023/06/02,09:00,0.534,0.786,0.480,0.972,0.696,0.319,0.565,0.531,��,11.0,�L
2023/06/02,09:10,0.534,0.781,0.482,0.971,0.696,0.320,0.565,0.533,��,13.0,�L
2023/06/02,09:20,0.533,0.784,0.481,0.971,0.696,0.319,0.566,0.532,��,11.4,�L
2023/06/02,09:30,0.535,0.783,0.484,0.970,0.695,0.319,0.565,0.533,��,11.0,�L
2023/06/02,09:40,0.528,0.774,0.477,0.966,0.691,0.317,0.563,0.533,��,11.3,�L
2023/06/02,09:50,0.528,0.776,0.477,0.959,0.690,0.319,0.563,0.531,��,10.5,�L
2023/06/02,10:00,0.528,0.778,0.478,0.962,0.691,0.318,0.564,0.531,��,7.3,�L
2023/06/02,10:10,0.529,0.775,0.479,0.960,0.692,0.319,0.564,0.532,��,7.9,�L
2023/06/02,10:20,0.530,0.775,0.478,0.959,0.689,0.319,0.563,0.530,��쓌,7.7,�L
2023/06/02,10:30,0.527,0.774,0.478,0.960,0.687,0.318,0.562,0.530,��쓌,6.9,�L
2023/06/02,10:40,0.526,0.772,0.495,0.955,0.688,0.317,0.561,0.530,��쓌,8.1,�L
2023/06/02,10:50,0.526,0.773,0.476,0.954,0.686,0.317,0.561,0.530,��,7.8,�L
2023/06/02,11:00,0.524,0.771,0.476,0.954,0.683,0.319,0.560,0.528,��쓌,5.8,�L
2023/06/02,11:10,0.527,0.772,0.475,0.952,0.683,0.317,0.559,0.528,��,5.9,�L
2023/06/02,11:20,0.525,0.769,0.477,0.951,0.683,0.318,0.560,0.527,��,3.3,�L
2023/06/02,11:30,0.523,0.771,0.476,0.951,0.683,0.317,0.559,0.529,��,2.9,�L
2023/06/02,11:40,0.524,0.768,0.476,0.948,0.680,0.318,0.558,0.528,��쐼,2.0,�L
2023/06/02,11:50,0.525,0.767,0.475,0.946,0.683,0.317,0.558,0.527,�쐼,2.0,�L
2023/06/02,12:00,0.525,0.769,0.477,0.946,0.682,0.317,0.560,0.528,���쐼,1.7,�L
2023/06/02,12:10,0.526,0.771,0.476,0.949,0.682,0.317,0.558,0.527,��쐼,1.7,�L
2023/06/02,12:20,0.525,0.769,0.476,0.944,0.681,0.316,0.559,0.528,��,1.1,�L
2023/06/02,12:30,0.525,0.768,0.474,0.945,0.679,0.317,0.557,0.527,��,0.9,�L
2023/06/02,12:40,0.523,0.767,0.474,0.941,0.679,0.315,0.558,0.528,��쓌,1.5,�L
2023/06/02,12:50,0.522,0.766,0.476,0.943,0.679,0.318,0.557,0.527,��쓌,2.6,�L
2023/06/02,13:00,0.524,0.765,0.475,0.943,0.678,0.317,0.558,0.527,��쓌,2.9,�L
2023/06/02,13:10,0.524,0.767,0.474,0.942,0.680,0.315,0.558,0.527,��쓌,3.3,�L
2023/06/02,13:20,0.522,0.767,0.475,0.942,0.679,0.316,0.557,0.527,��쓌,3.5,�L
2023/06/02,13:30,0.523,0.767,0.475,0.941,0.677,0.317,0.556,0.530,��쓌,4.4,�L
2023/06/02,13:40,0.523,0.769,0.475,0.944,0.677,0.316,0.557,0.527,��,3.5,�L
2023/06/02,13:50,0.523,0.766,0.475,0.942,0.677,0.315,0.555,0.525,��,3.0,�L
2023/06/02,14:00,0.522,0.764,0.473,0.941,0.677,0.317,0.555,0.527,��,2.6,�L
2023/06/02,14:10,0.522,0.766,0.472,0.938,0.674,0.316,0.557,0.526,��,3.6,�L
2023/06/02,14:20,0.520,0.762,0.473,0.937,0.674,0.315,0.555,0.526,��,4.2,�L
2023/06/02,14:30,0.519,0.762,0.472,0.937,0.673,0.316,0.555,0.526,��,4.4,�L
2023/06/02,14:40,0.519,0.761,0.472,0.937,0.673,0.316,0.556,0.524,��,4.1,�L
2023/06/02,14:50,0.518,0.763,0.472,0.934,0.674,0.315,0.556,0.527,��쓌,5.2,�L
2023/06/02,15:00,0.520,0.762,0.472,0.937,0.671,0.315,0.557,0.525,��,7.9,�L
2023/06/02,15:10,0.520,0.760,0.471,0.933,0.673,0.314,0.554,0.525,��,8.2,�L
2023/06/02,15:20,0.521,0.764,0.472,0.934,0.674,0.316,0.554,0.527,��,7.8,�L
2023/06/02,15:30,0.518,0.763,0.472,0.936,0.674,0.315,0.555,0.528,��,9.1,�L
2023/06/02,15:40,0.520,0.762,0.473,0.938,0.674,0.315,0.555,0.526,��,10.5,�L
2023/06/02,15:50,0.521,0.762,0.471,0.935,0.671,0.315,0.555,0.524,��,10.8,�L
2023/06/02,16:00,0.518,0.761,0.472,0.932,0.671,0.315,0.555,0.525,��쐼,10.2,�L
2023/06/02,16:10,0.515,0.755,0.468,0.928,0.665,0.315,0.553,0.524,��,10.3,�L
2023/06/02,16:20,0.515,0.752,0.468,0.925,0.663,0.312,0.552,0.523,��,10.2,�L
2023/06/02,16:30,0.513,0.752,0.466,0.922,0.661,0.311,0.550,0.521,��,8.5,�L
2023/06/02,16:40,0.511,0.746,0.468,0.918,0.656,0.312,0.549,0.519,��,7.9,�L
2023/06/02,16:50,0.511,0.748,0.466,0.918,0.656,0.312,0.549,0.510,��,7.8,�L
2023/06/02,17:00,0.511,0.750,0.466,0.916,0.656,0.311,0.548,0.486,��,8.1,�L
2023/06/02,17:10,0.511,0.750,0.466,0.922,0.656,0.311,0.548,0.477,��쓌,9.0,�L
2023/06/02,17:20,0.512,0.750,0.466,0.921,0.656,0.313,0.547,0.480,��쓌,9.0,�L
2023/06/02,17:30,0.511,0.753,0.467,0.920,0.655,0.312,0.548,0.489,��쓌,7.6,�L
2023/06/02,17:40,0.514,0.753,0.468,0.923,0.658,0.313,0.548,0.502,��쓌,8.8,�L
2023/06/02,17:50,0.516,0.754,0.469,0.923,0.659,0.313,0.549,0.516,��쓌,8.8,�L
2023/06/02,18:00,0.515,0.758,0.469,0.925,0.663,0.315,0.551,0.523,��쓌,9.1,�L
2023/06/02,18:10,0.519,0.760,0.471,0.925,0.663,0.315,0.552,0.525,��쓌,9.0,�L
2023/06/02,18:20,0.518,0.757,0.472,0.928,0.664,0.315,0.553,0.526,��,9.0,�L
2023/06/02,18:30,0.518,0.760,0.472,0.928,0.663,0.315,0.552,0.527,��,8.2,�L
2023/06/02,18:40,0.519,0.759,0.470,0.929,0.666,0.315,0.553,0.527,��,6.7,�L
2023/06/02,18:50,0.520,0.759,0.473,0.929,0.665,0.317,0.554,0.528,��,6.5,��
2023/06/02,19:00,0.520,0.762,0.472,0.929,0.667,0.316,0.552,0.527,��,6.6,��
2023/06/02,19:10,0.521,0.761,0.473,0.931,0.667,0.316,0.553,0.528,��,7.6,�L
2023/06/02,19:20,0.519,0.762,0.474,0.931,0.667,0.316,0.553,0.528,��쐼,7.5,�L
2023/06/02,19:30,0.519,0.764,0.474,0.932,0.667,0.316,0.553,0.528,��쐼,7.8,�L
2023/06/02,19:40,0.519,0.765,0.475,0.933,0.669,0.317,0.554,0.528,��,8.8,�L
2023/06/02,19:50,0.520,0.764,0.475,0.934,0.668,0.316,0.554,0.528,��,9.1,��
2023/06/02,20:00,0.521,0.766,0.474,0.934,0.669,0.316,0.554,0.528,��,8.7,�L
2023/06/02,20:10,0.521,0.765,0.476,0.932,0.670,0.316,0.554,0.527,��,6.9,�L
2023/06/02,20:20,0.521,0.766,0.475,0.935,0.669,0.316,0.555,0.529,��,5.9,��
2023/06/02,20:30,0.523,0.767,0.475,0.935,0.670,0.315,0.555,0.528,��쐼,5.4,�L
2023/06/02,20:40,0.522,0.769,0.475,0.937,0.672,0.317,0.556,0.528,��쐼,4.8,�L
2023/06/02,20:50,0.522,0.769,0.477,0.934,0.673,0.317,0.556,0.529,�쐼,4.5,��
2023/06/02,21:00,0.524,0.769,0.477,0.935,0.671,0.318,0.557,0.528,�쐼,5.1,��
2023/06/02,21:10,0.521,0.770,0.476,0.935,0.673,0.316,0.555,0.529,��쐼,5.8,��
2023/06/02,21:20,0.521,0.769,0.477,0.934,0.674,0.317,0.558,0.530,��쐼,6.2,��
2023/06/02,21:30,0.522,0.770,0.475,0.937,0.673,0.318,0.557,0.529,��쐼,8.5,�L
2023/06/02,21:40,0.522,0.770,0.477,0.936,0.673,0.317,0.556,0.530,��쐼,7.6,�L
2023/06/02,21:50,0.524,0.768,0.476,0.937,0.675,0.317,0.558,0.529,�쐼,7.4,�L
2023/06/02,22:00,0.522,0.768,0.477,0.937,0.672,0.317,0.556,0.530,�쐼,6.5,�L
2023/06/02,22:10,0.522,0.769,0.477,0.937,0.671,0.318,0.557,0.528,�쐼,4.8,�L
2023/06/02,22:20,0.521,0.766,0.476,0.938,0.673,0.317,0.555,0.528,���쐼,2.6,�L
2023/06/02,22:30,0.523,0.766,0.473,0.937,0.669,0.318,0.556,0.528,��쐼,2.6,�L
2023/06/02,22:40,0.521,0.767,0.476,0.938,0.671,0.318,0.558,0.527,��쐼,3.5,�L
2023/06/02,22:50,0.523,0.766,0.475,0.937,0.671,0.318,0.557,0.527,�쐼,3.2,�L
2023/06/02,23:00,0.522,0.766,0.474,0.938,0.670,0.317,0.554,0.527,�쐼,4.1,�L
2023/06/02,23:10,0.522,0.766,0.476,0.939,0.672,0.318,0.557,0.528,��,2.3,�L
2023/06/02,23:20,0.522,0.767,0.474,0.936,0.671,0.319,0.556,0.527,���쐼,2.3,�L
2023/06/02,23:30,0.521,0.765,0.475,0.936,0.671,0.318,0.555,0.526,�쐼,2.8,�L
2023/06/02,23:40,0.522,0.766,0.475,0.936,0.670,0.319,0.555,0.526,���쐼,5.3,�L
2023/06/02,23:50,0.521,0.766,0.475,0.938,0.669,0.319,0.557,0.527,��,4.9,�L
